Estación Meteorológica Peña el Pijo (Robertgarden) [ 07/10/20 23:44:07 CEST ]

Fecha Hora Presion(HPa) Temp (°C) Humedad % Rocio (°C) Viento ( m/s) Direccion Lluvia 1Hora(mm) Lluvia 24H(mm) LLuvia Total(mm)
2019-Dec-21 01:09:14 996.000 - - - - S     39.88
2019-Dec-21 02:10:51 996.500 - - - - S     39.88
2019-Dec-21 03:10:50 996.700 - - - - S     39.88
2019-Dec-21 04:10:51 997.600 - - - - S     39.88
2019-Dec-21 05:11:57 997.200 - - - - S     39.88
2019-Dec-21 06:09:39 997.600 - - - - S     39.88
2019-Dec-21 07:09:14 997.900 - - - - S     39.88
2019-Dec-21 08:09:08 998.300 - - - - S     39.88
2019-Dec-21 09:09:14 998.800 - - - - S     39.88
2019-Dec-21 10:09:31 998.900 - - - - S     39.88
2019-Dec-21 11:09:19 999.000 - - - - S     39.88
2019-Dec-21 12:09:38 998.500 - - - - S     39.88
2019-Dec-21 13:09:20 998.600 - - - - S     39.88
2019-Dec-21 14:39:09 998.400 - - - - S     39.88
2019-Dec-21 15:08:50 998.100 - - - - S     39.88
2019-Dec-21 16:09:06 999.000 - - - - S     39.88
2019-Dec-21 17:09:26 999.400 - - - - S     39.88
2019-Dec-21 18:09:15 999.500 - - - - S     39.88
2019-Dec-21 19:09:45 1000.000 - - - - S     39.88
2019-Dec-21 20:08:56 1001.500 - - - - S     39.88
2019-Dec-21 21:09:07 1002.500 - - - - S     39.88
2019-Dec-21 22:08:56 1002.800 - - - - WNW     39.88
2019-Dec-21 23:09:11 1003.600 - - - - WNW     39.88

Temperatura Máxima:    Temperatura Mínima:
Presión Máxima:1003.600 Hpa    Presión Mínima:996.000 Hpa


Volver